TimeCST,TemperatureF,Dew PointF,Humidity,Sea Level PressureIn,VisibilityMPH,Wind Direction,Wind SpeedMPH,Gust SpeedMPH,PrecipitationIn,Events,Conditions,WindDirDegrees,DateUTC
12:15 AM,30.6,26.6,85,29.59,10.0,NW,21.9,25.3,N/A,,Overcast,310,2012-01-23 06:15:00
12:35 AM,31.1,27.3,86,29.60,10.0,NW,25.3,-,N/A,,Overcast,310,2012-01-23 06:35:00
1:15 AM,31.1,27.1,85,29.62,10.0,NW,23.0,28.8,N/A,,Overcast,310,2012-01-23 07:15:00
1:35 AM,31.5,27.3,85,29.62,10.0,NW,24.2,29.9,N/A,,Overcast,310,2012-01-23 07:35:00
1:55 AM,31.5,27.5,85,29.64,10.0,NW,24.2,32.2,N/A,Snow,Light Snow,310,2012-01-23 07:55:00
2:15 AM,31.6,27.5,85,29.65,10.0,WNW,18.4,26.5,N/A,,Overcast,300,2012-01-23 08:15:00
2:35 AM,32.0,27.1,82,29.67,10.0,NW,20.7,27.6,N/A,,Overcast,310,2012-01-23 08:35:00
2:55 AM,31.3,26.6,83,29.69,10.0,NW,20.7,27.6,N/A,,Overcast,310,2012-01-23 08:55:00
3:15 AM,30.9,26.4,83,29.69,10.0,WNW,12.7,-,N/A,,Overcast,300,2012-01-23 09:15:00
3:55 AM,30.7,24.6,78,29.70,10.0,WNW,21.9,29.9,N/A,,Overcast,300,2012-01-23 09:55:00
4:15 AM,30.0,24.3,79,29.71,10.0,NW,25.3,36.8,N/A,,Overcast,310,2012-01-23 10:15:00
4:55 AM,28.8,23.7,81,29.72,10.0,NW,17.3,27.6,N/A,,Overcast,310,2012-01-23 10:55:00
5:15 AM,28.6,23.5,81,29.73,10.0,NW,20.7,26.5,N/A,,Overcast,310,2012-01-23 11:15:00
5:35 AM,28.2,22.5,79,29.74,10.0,NW,23.0,32.2,N/A,,Overcast,310,2012-01-23 11:35:00
5:55 AM,27.9,21.9,78,29.75,10.0,NW,26.5,32.2,N/A,,Overcast,310,2012-01-23 11:55:00
6:15 AM,27.3,21.6,79,29.77,10.0,NW,25.3,35.7,N/A,,Overcast,310,2012-01-23 12:15:00
6:35 AM,26.6,21.7,82,29.78,10.0,NW,20.7,33.4,N/A,,Overcast,310,2012-01-23 12:35:00
7:15 AM,26.2,21.4,82,29.81,10.0,NW,15.0,-,N/A,,Overcast,310,2012-01-23 13:15:00
7:35 AM,26.4,21.2,81,29.81,10.0,WNW,18.4,24.2,N/A,,Overcast,300,2012-01-23 13:35:00
7:55 AM,26.4,21.7,82,29.81,10.0,NW,17.3,-,N/A,,Overcast,310,2012-01-23 13:55:00
8:15 AM,26.6,21.6,81,29.83,10.0,WNW,11.5,18.4,N/A,,Overcast,300,2012-01-23 14:15:00
8:35 AM,26.6,21.2,80,29.84,10.0,WNW,16.1,-,N/A,,Overcast,300,2012-01-23 14:35:00
8:55 AM,27.1,21.2,78,29.84,10.0,WNW,18.4,26.5,N/A,,Overcast,300,2012-01-23 14:55:00
9:15 AM,27.3,21.7,80,29.84,10.0,WNW,12.7,-,N/A,,Overcast,300,2012-01-23 15:15:00
9:35 AM,27.3,21.6,79,29.86,10.0,WNW,17.3,23.0,N/A,,Overcast,290,2012-01-23 15:35:00
9:55 AM,27.5,21.0,77,29.86,10.0,WNW,17.3,23.0,N/A,,Overcast,300,2012-01-23 15:55:00
10:15 AM,27.5,20.5,75,29.87,10.0,NW,19.6,25.3,N/A,,Overcast,310,2012-01-23 16:15:00
10:35 AM,27.5,20.7,75,29.89,10.0,NW,18.4,24.2,N/A,,Overcast,310,2012-01-23 16:35:00
10:55 AM,28.2,21.4,76,29.89,10.0,WNW,19.6,-,N/A,,Overcast,300,2012-01-23 16:55:00
11:15 AM,28.2,21.7,77,29.88,10.0,WNW,17.3,23.0,N/A,,Overcast,300,2012-01-23 17:15:00
11:35 AM,28.4,22.6,79,29.89,10.0,West,15.0,-,N/A,,Overcast,280,2012-01-23 17:35:00
11:55 AM,28.9,22.8,78,29.89,10.0,WNW,15.0,-,N/A,,Overcast,290,2012-01-23 17:55:00
12:15 PM,29.1,22.6,77,29.89,10.0,WNW,15.0,20.7,N/A,,Overcast,300,2012-01-23 18:15:00
12:35 PM,29.7,22.1,73,29.89,10.0,WNW,23.0,-,N/A,,Overcast,300,2012-01-23 18:35:00
12:55 PM,29.3,22.1,75,29.89,10.0,WNW,18.4,-,N/A,,Overcast,300,2012-01-23 18:55:00
1:15 PM,29.8,22.8,75,29.89,10.0,WNW,15.0,-,N/A,,Overcast,290,2012-01-23 19:15:00
1:35 PM,30.2,22.6,73,29.89,10.0,NW,16.1,-,N/A,,Overcast,320,2012-01-23 19:35:00
1:55 PM,30.2,22.6,73,29.89,10.0,NW,15.0,-,N/A,,Overcast,310,2012-01-23 19:55:00
2:15 PM,30.0,22.3,73,29.90,10.0,WNW,12.7,-,N/A,,Overcast,300,2012-01-23 20:15:00
2:35 PM,30.2,22.8,74,29.90,10.0,NW,11.5,-,N/A,,Overcast,310,2012-01-23 20:35:00
2:55 PM,30.6,22.6,72,29.91,10.0,WNW,12.7,-,N/A,,Overcast,300,2012-01-23 20:55:00
3:15 PM,30.9,23.0,72,29.92,10.0,WNW,12.7,-,N/A,,Overcast,300,2012-01-23 21:15:00
3:35 PM,30.7,23.0,73,29.93,10.0,NW,10.4,-,N/A,,Overcast,310,2012-01-23 21:35:00
3:55 PM,30.7,22.6,72,29.93,10.0,WNW,12.7,-,N/A,,Overcast,300,2012-01-23 21:55:00
4:15 PM,30.7,22.8,72,29.93,10.0,NW,10.4,-,N/A,,Overcast,310,2012-01-23 22:15:00
4:35 PM,30.6,22.5,72,29.93,10.0,NW,11.5,-,N/A,,Scattered Clouds,320,2012-01-23 22:35:00
4:55 PM,30.0,22.1,72,29.94,10.0,NW,8.1,-,N/A,,Clear,320,2012-01-23 22:55:00
5:15 PM,28.4,21.6,76,29.94,10.0,NNW,3.5,-,N/A,,Clear,340,2012-01-23 23:15:00
5:35 PM,27.3,21.2,78,29.96,10.0,Calm,Calm,-,N/A,,Clear,0,2012-01-23 23:35:00
5:55 PM,25.5,20.7,82,29.96,10.0,Calm,Calm,-,N/A,,Clear,0,2012-01-23 23:55:00
6:15 PM,25.5,20.3,81,29.96,10.0,North,3.5,-,N/A,,Clear,350,2012-01-24 00:15:00
6:35 PM,23.0,18.3,82,29.98,10.0,Calm,Calm,-,N/A,,Clear,0,2012-01-24 00:35:00
6:55 PM,22.6,19.0,86,29.99,10.0,Calm,Calm,-,N/A,,Clear,0,2012-01-24 00:55:00
7:15 PM,22.8,19.6,87,30.00,10.0,Calm,Calm,-,N/A,,Clear,0,2012-01-24 01:15:00
7:35 PM,19.2,16.3,89,30.01,10.0,Calm,Calm,-,N/A,,Clear,0,2012-01-24 01:35:00
7:55 PM,20.8,18.1,89,30.01,10.0,Calm,Calm,-,N/A,,Clear,0,2012-01-24 01:55:00
8:15 PM,19.0,16.0,88,30.01,10.0,Calm,Calm,-,N/A,,Clear,0,2012-01-24 02:15:00
8:35 PM,18.7,16.3,91,30.02,10.0,Calm,Calm,-,N/A,,Clear,0,2012-01-24 02:35:00
8:55 PM,19.4,17.1,91,30.02,10.0,Calm,Calm,-,N/A,,Clear,0,2012-01-24 02:55:00
9:15 PM,16.3,14.0,90,30.03,10.0,Calm,Calm,-,N/A,,Clear,0,2012-01-24 03:15:00
9:35 PM,18.7,16.5,91,30.04,10.0,Calm,Calm,-,N/A,,Clear,0,2012-01-24 03:35:00
9:55 PM,16.3,14.7,93,30.04,10.0,Calm,Calm,-,N/A,,Clear,0,2012-01-24 03:55:00
10:15 PM,15.4,13.6,93,30.04,10.0,Calm,Calm,-,N/A,,Clear,0,2012-01-24 04:15:00
10:35 PM,13.8,12.0,93,30.04,10.0,Calm,Calm,-,N/A,,Clear,0,2012-01-24 04:35:00
10:55 PM,12.7,10.2,90,30.04,10.0,Calm,Calm,-,N/A,,Clear,0,2012-01-24 04:55:00
11:15 PM,10.4,7.3,87,30.05,10.0,Calm,Calm,-,N/A,,Clear,0,2012-01-24 05:15:00
11:35 PM,11.3,9.0,90,30.05,10.0,Calm,Calm,-,N/A,,Clear,0,2012-01-24 05:35:00
11:55 PM,13.1,11.3,93,30.05,10.0,Calm,Calm,-,N/A,,Clear,0,2012-01-24 05:55:00